Orange, MA

4:16 AM EDT on August 26, 2016 (GMT -0400)
Orange Municipal

Weather History for KORE - October, 2014

Change the Weather History Date:

Sunday, October 12, 2014

  Actual Average Record
Temperature  
Mean Temperature 48 °F -  
Max Temperature 61 °F 59 °F 75 °F (2001)
Min Temperature 36 °F 36 °F 25 °F (1996)
Degree Days  
Heating Degree Days 17    
Moisture  
Dew Point 39 °F    
Average Humidity 84    
Maximum Humidity 100    
Minimum Humidity 41    
Precipitation  
Precipitation 0.00 in - - ()
Sea Level Pressure  
Sea Level Pressure 30.26 in    
Wind  
Wind Speed 1 mph (NNW)    
Max Wind Speed 13 mph    
Max Gust Speed -    
Visibility 6 miles    
Events Fog    
Averages and records for this station are not official NWS values.
T = Trace of Precipitation, MM = Missing Value Source: NWS Daily Summary

Daily Weather History Graph

Daily Weather History Graph

Search for Another Location

Airport or City:

Trip Planner

Search our weather history database for the weather conditions in past years. The results will help you decide how hot, cold, wet, or windy it might be!

Date:

Astronomy

Oct. 12, 2014 Rise Set
Actual Time 6:58 AM EDT 6:11 PM EDT
Civil Twilight 6:30 AM EDT 6:40 PM EDT
Nautical Twilight 5:57 AM EDT 7:12 PM EDT
Astronomical Twilight 5:25 AM EDT 7:45 PM EDT
Moon 9:23 PM EDT (10/12) 11:22 AM EDT (10/12)
Length of Visible Light 12h 09m
Length of Day
11h 13m
Waning Gibbous, 79% of the Moon is Illuminated
Oct 12
Waning Gibbous
Oct 15
Last Quarter
Oct 23
New
Oct 30
First Quarter
Nov 6
Full

Hourly Weather History & Observations

Time (EDT) Temp. Dew Point Humidity Pressure Visibility Wind Dir Wind Speed Gust Speed Precip Events Conditions
12:52 AM 42.1 °F 42.1 °F 100% 30.17 in 0.2 mi Calm Calm - N/A Fog Fog
1:52 AM 42.1 °F 41.0 °F 96% 30.19 in 0.2 mi Calm Calm - N/A Fog Fog
2:52 AM 41.0 °F 39.9 °F 96% 30.18 in 0.2 mi Calm Calm - N/A Fog Fog
3:52 AM 39.0 °F 39.0 °F 100% 30.19 in 0.2 mi Calm Calm - N/A Fog Fog
4:52 AM 37.9 °F 37.9 °F 100% 30.20 in 0.2 mi Calm Calm - N/A Fog Fog
5:52 AM 37.9 °F 37.9 °F 100% 30.22 in 0.2 mi Calm Calm - N/A Fog Fog
6:52 AM 37.0 °F 36.0 °F 96% 30.24 in 0.2 mi Calm Calm - N/A Fog Fog
7:52 AM 36.0 °F 36.0 °F 100% 30.27 in 0.2 mi Calm Calm - N/A Fog Fog
8:52 AM 37.9 °F 37.0 °F 97% 30.29 in 0.2 mi Calm Calm - N/A Fog Fog
9:18 AM 39.9 °F 39.9 °F 100% 30.27 in 1.2 mi Calm Calm - N/A   Overcast
9:21 AM 39.9 °F 39.0 °F 97% 30.27 in 2.0 mi Calm Calm - N/A   Overcast
9:52 AM 43.0 °F 41.0 °F 93% 30.30 in 10.0 mi Calm Calm - N/A   Scattered Clouds
10:52 AM 51.1 °F 42.1 °F 71% 30.29 in 10.0 mi Calm Calm - N/A   Clear
11:52 AM 55.9 °F 39.9 °F 55% 30.28 in 10.0 mi NNE 9.2 mph - N/A   Mostly Cloudy
12:52 PM 57.9 °F 37.0 °F 46% 30.27 in 10.0 mi NNW 12.7 mph - N/A   Clear
1:52 PM 57.9 °F 37.0 °F 46% 30.25 in 10.0 mi NW 11.5 mph - N/A   Clear
2:52 PM 59.0 °F 35.1 °F 41% 30.24 in 10.0 mi NW 4.6 mph - N/A   Clear
3:52 PM 60.1 °F 36.0 °F 41% 30.24 in 10.0 mi Calm Calm - N/A   Clear
4:52 PM 60.1 °F 37.0 °F 42% 30.24 in 10.0 mi Calm Calm - N/A   Clear
5:52 PM 55.0 °F 45.0 °F 69% 30.26 in 10.0 mi Calm Calm - N/A   Clear
6:52 PM 48.0 °F 45.0 °F 89% 30.29 in 10.0 mi Calm Calm - N/A   Clear
7:52 PM 44.1 °F 42.1 °F 93% 30.30 in 10.0 mi Calm Calm - N/A   Clear
8:52 PM 42.1 °F 41.0 °F 96% 30.31 in 10.0 mi Calm Calm - N/A   Clear
9:35 PM 39.9 °F 39.0 °F 97% 30.30 in 1.8 mi Calm Calm - N/A   Clear
9:45 PM 39.9 °F 39.0 °F 97% 30.30 in 4.0 mi Calm Calm - N/A   Clear
9:52 PM 39.9 °F 39.0 °F 97% 30.32 in 9.0 mi Calm Calm - N/A   Clear
10:52 PM 37.9 °F 37.0 °F 97% 30.32 in 9.0 mi Calm Calm - N/A   Clear
11:34 PM 37.0 °F 36.0 °F 96% 30.30 in 5.0 mi Calm Calm - N/A   Scattered Clouds
11:52 PM 36.0 °F 35.1 °F 97% 30.32 in 8.0 mi Calm Calm - N/A   Partly Cloudy